Location: Barnston
(51.8500°N, 0.4000°E)
Time: 14:57:59
(UTC+00:00)

Cosmos 44 - Pass Details

Date: 26 September 2023
Orbit: 570 x 788 km, 65.1° (Epoch: 07 December)

Event Time Altitude Azimuth Distance (km) Brightness Sun altitude
Exits shadow 03:00:36 51° 153° (SSE) 927 3.8 -25.5°
Maximum altitude 03:01:16 54° 124° (ESE) 892 3.8 -25.5°
Drops below altitude 10° 03:06:26 10° 48° (NE) 2,309 7.0 -24.8°
Sets 03:08:56 0° 44° (NE) 3,261 8.1 -24.5°
